Zurück zum Katalog

STARLINK-31244

AktivKommunikationVLEO
NORAD 58856·PAYLOAD·🇺🇸 United States

Gestartet Jan 29, 2024 von Cape Canaveral Space Force Station

Loading…

Nächste Überflüge (nächste 24 Stunden)

TLE

AktuellSource: CelesTrak SupGP

Epoche: Sep 14, 2026, 20:43 UTC

1 58856C 24019D   26257.86368056  .00026901  00000+0  97441-3 0  2574
2 58856  43.0018 260.5024 0001517 259.3461 144.8820 15.27563597    11

Verfolge STARLINK-31244 in Echtzeit mit AllMySat

Download on the App Store